TimeEDT,TemperatureF,Dew PointF,Humidity,Sea Level PressureIn,VisibilityMPH,Wind Direction,Wind SpeedMPH,Gust SpeedMPH,PrecipitationIn,Events,Conditions,WindDirDegrees,DateUTC
12:15 AM,75.2,73.4,94,30.08,10.0,NE,5.8,-,N/A,,Mostly Cloudy,40,2012-09-15 04:15:00
12:35 AM,75.2,73.4,94,30.08,10.0,NE,5.8,-,N/A,,Scattered Clouds,40,2012-09-15 04:35:00
12:55 AM,75.2,71.6,89,30.07,10.0,NE,5.8,-,N/A,,Mostly Cloudy,50,2012-09-15 04:55:00
1:15 AM,75.2,71.6,89,30.07,10.0,NE,6.9,-,N/A,,Overcast,40,2012-09-15 05:15:00
1:55 AM,75.2,73.4,94,30.06,10.0,ENE,5.8,-,N/A,,Mostly Cloudy,60,2012-09-15 05:55:00
2:15 AM,73.4,73.4,100,30.06,10.0,ENE,8.1,-,N/A,,Overcast,70,2012-09-15 06:15:00
2:35 AM,73.4,73.4,100,30.05,10.0,ENE,8.1,-,N/A,,Mostly Cloudy,60,2012-09-15 06:35:00
2:55 AM,73.4,73.4,100,30.05,10.0,NE,6.9,-,N/A,,Mostly Cloudy,50,2012-09-15 06:55:00
3:15 AM,73.4,73.4,100,30.04,10.0,ENE,6.9,-,N/A,,Mostly Cloudy,70,2012-09-15 07:15:00
3:35 AM,73.4,73.4,100,30.04,10.0,ENE,5.8,-,N/A,,Mostly Cloudy,60,2012-09-15 07:35:00
3:55 AM,73.4,73.4,100,30.04,8.0,ENE,4.6,-,N/A,,Mostly Cloudy,60,2012-09-15 07:55:00
4:15 AM,73.4,73.4,100,30.04,9.0,ENE,5.8,-,N/A,,Scattered Clouds,60,2012-09-15 08:15:00
4:55 AM,73.4,73.4,100,30.03,10.0,ENE,6.9,-,N/A,,Mostly Cloudy,60,2012-09-15 08:55:00
5:15 AM,73.4,73.4,100,30.03,9.0,ENE,5.8,-,N/A,,Mostly Cloudy,60,2012-09-15 09:15:00
5:35 AM,73.4,73.4,100,30.04,10.0,ENE,5.8,-,N/A,,Scattered Clouds,70,2012-09-15 09:35:00
5:55 AM,71.6,71.6,100,30.05,10.0,ENE,4.6,-,N/A,,Partly Cloudy,60,2012-09-15 09:55:00
6:15 AM,71.6,71.6,100,30.05,10.0,NE,5.8,-,N/A,,Clear,50,2012-09-15 10:15:00
6:35 AM,73.4,73.4,100,30.06,9.0,NNE,6.9,-,N/A,,Partly Cloudy,30,2012-09-15 10:35:00
6:55 AM,73.4,73.4,100,30.06,9.0,ENE,4.6,-,N/A,,Partly Cloudy,60,2012-09-15 10:55:00
7:15 AM,71.6,71.6,100,30.07,9.0,ENE,3.5,-,N/A,,Partly Cloudy,60,2012-09-15 11:15:00
3:35 PM,82.4,69.8,66,30.04,8.0,NE,10.4,-,N/A,,Scattered Clouds,40,2012-09-15 19:35:00
3:55 PM,80.6,68.0,65,30.04,10.0,NE,8.1,-,N/A,,Mostly Cloudy,50,2012-09-15 19:55:00
4:15 PM,80.6,69.8,70,30.04,10.0,East,12.7,-,N/A,,Mostly Cloudy,100,2012-09-15 20:15:00
4:35 PM,78.8,71.6,78,30.05,6.0,ESE,8.1,-,N/A,,Haze,110,2012-09-15 20:35:00
4:55 PM,75.2,71.6,89,30.04,10.0,ESE,6.9,-,N/A,,Mostly Cloudy,120,2012-09-15 20:55:00
5:15 PM,77.0,71.6,83,30.04,9.0,SE,6.9,-,N/A,,Mostly Cloudy,130,2012-09-15 21:15:00
5:35 PM,78.8,69.8,74,30.03,9.0,ENE,3.5,-,N/A,,Mostly Cloudy,70,2012-09-15 21:35:00
5:55 PM,78.8,69.8,74,30.03,9.0,East,3.5,-,N/A,,Mostly Cloudy,90,2012-09-15 21:55:00
6:15 PM,78.8,71.6,78,30.02,9.0,East,4.6,-,N/A,,Mostly Cloudy,80,2012-09-15 22:15:00
6:35 PM,78.8,71.6,78,30.02,9.0,NE,3.5,-,N/A,,Mostly Cloudy,50,2012-09-15 22:35:00
6:55 PM,78.8,71.6,78,30.03,8.0,East,3.5,-,N/A,,Mostly Cloudy,90,2012-09-15 22:55:00
7:15 PM,78.8,71.6,78,30.03,9.0,East,4.6,-,N/A,,Mostly Cloudy,90,2012-09-15 23:15:00
7:35 PM,77.0,71.6,83,30.03,8.0,Calm,Calm,-,N/A,,Mostly Cloudy,0,2012-09-15 23:35:00
7:55 PM,77.0,71.6,83,30.04,10.0,ENE,3.5,-,N/A,,Partly Cloudy,70,2012-09-15 23:55:00
8:15 PM,75.2,71.6,89,30.04,10.0,Calm,Calm,-,N/A,,Mostly Cloudy,0,2012-09-16 00:15:00
8:35 PM,77.0,71.6,83,30.04,10.0,Calm,Calm,-,N/A,,Mostly Cloudy,0,2012-09-16 00:35:00
8:55 PM,75.2,71.6,89,30.05,10.0,Calm,Calm,-,N/A,,Scattered Clouds,0,2012-09-16 00:55:00
9:15 PM,75.2,71.6,89,30.06,10.0,NE,3.5,-,N/A,,Scattered Clouds,50,2012-09-16 01:15:00
9:55 PM,75.2,71.6,89,30.07,10.0,East,3.5,-,N/A,,Scattered Clouds,80,2012-09-16 01:55:00
10:15 PM,75.2,73.4,94,30.07,10.0,Calm,Calm,-,N/A,,Scattered Clouds,0,2012-09-16 02:15:00
10:35 PM,75.2,73.4,94,30.07,10.0,Calm,Calm,-,N/A,,Mostly Cloudy,0,2012-09-16 02:35:00
10:55 PM,73.4,73.4,100,30.07,10.0,Calm,Calm,-,N/A,,Scattered Clouds,0,2012-09-16 02:55:00
11:15 PM,73.4,73.4,100,30.08,10.0,NE,3.5,-,N/A,,Scattered Clouds,50,2012-09-16 03:15:00
11:35 PM,73.4,73.4,100,30.08,10.0,NE,3.5,-,N/A,,Scattered Clouds,40,2012-09-16 03:35:00
11:55 PM,73.4,73.4,100,30.09,10.0,Calm,Calm,-,N/A,,Scattered Clouds,0,2012-09-16 03:55:00